Time,TemperatureF,DewpointF,PressureIn,WindDirection,WindDirectionDegrees,WindSpeedMPH,WindSpeedGustMPH,Humidity,HourlyPrecipIn,Conditions,Clouds,dailyrainin,SoftwareType,DateUTC
2013-09-02 00:01:00,69.3,58.7,29.87,SSW,196,0.0,5.0,69,0.00,,SKC,0.00,VWS V14.01,2013-09-02 07:01:00,
2013-09-02 00:10:00,69.3,58.7,29.86,West,277,0.0,5.0,69,0.00,,SKC,0.00,VWS V14.01,2013-09-02 07:10:00,
2013-09-02 00:15:00,69.3,58.7,29.86,South,175,0.0,3.0,69,0.00,,SKC,0.00,VWS V14.01,2013-09-02 07:15:00,
2013-09-02 00:20:00,69.4,58.8,29.86,West,267,0.0,2.0,69,0.00,,SKC,0.00,VWS V14.01,2013-09-02 07:20:00,
2013-09-02 00:25:00,69.4,58.8,29.86,South,183,0.0,5.0,69,0.00,,SKC,0.00,VWS V14.01,2013-09-02 07:25:00,
2013-09-02 00:30:00,69.4,58.8,29.86,South,186,0.0,5.0,69,0.00,,SKC,0.00,VWS V14.01,2013-09-02 07:30:00,
2013-09-02 00:35:00,69.5,58.5,29.86,SSW,211,0.0,3.0,68,0.00,,SKC,0.00,VWS V14.01,2013-09-02 07:35:00,
2013-09-02 00:40:00,69.5,58.5,29.86,SSW,213,0.0,2.0,68,0.00,,SKC,0.00,VWS V14.01,2013-09-02 07:40:00,
2013-09-02 00:45:00,69.5,58.5,29.86,SW,230,3.0,3.0,68,0.00,,SKC,0.00,VWS V14.01,2013-09-02 07:45:00,
2013-09-02 00:50:00,69.5,58.5,29.86,SW,229,0.0,3.0,68,0.00,,SKC,0.00,VWS V14.01,2013-09-02 07:50:00,
2013-09-02 00:55:00,69.5,58.5,29.86,SSW,213,0.0,4.0,68,0.00,,SKC,0.00,VWS V14.01,2013-09-02 07:55:00,
2013-09-02 01:00:00,69.5,58.5,29.86,SW,221,0.0,2.0,68,0.00,,SKC,0.00,VWS V14.01,2013-09-02 08:00:00,
2013-09-02 01:05:00,69.5,58.5,29.86,SSE,166,1.0,4.0,68,0.00,,SKC,0.00,VWS V14.01,2013-09-02 08:05:00,
2013-09-02 01:10:00,69.6,58.6,29.86,SSE,165,0.0,1.0,68,0.00,,SKC,0.00,VWS V14.01,2013-09-02 08:10:00,
2013-09-02 01:15:00,69.6,58.6,29.86,South,171,0.0,4.0,68,0.00,,SKC,0.00,VWS V14.01,2013-09-02 08:15:00,
2013-09-02 01:20:00,69.6,58.6,29.86,South,172,4.0,4.0,68,0.00,,SKC,0.00,VWS V14.01,2013-09-02 08:20:00,
2013-09-02 01:25:00,69.7,58.7,29.86,SSW,192,0.0,5.0,68,0.00,,SKC,0.00,VWS V14.01,2013-09-02 08:25:00,
2013-09-02 01:30:00,69.6,58.6,29.86,SSW,192,1.0,4.0,68,0.00,,SKC,0.00,VWS V14.01,2013-09-02 08:30:00,
2013-09-02 01:35:00,69.6,58.6,29.86,South,187,0.0,4.0,68,0.00,,SKC,0.00,VWS V14.01,2013-09-02 08:35:00,
2013-09-02 01:40:00,69.6,58.6,29.86,West,275,0.0,2.0,68,0.00,,SKC,0.00,VWS V14.01,2013-09-02 08:40:00,
2013-09-02 01:45:00,69.5,58.5,29.85,South,186,0.0,4.0,68,0.00,,SKC,0.00,VWS V14.01,2013-09-02 08:45:00,
2013-09-02 01:50:00,69.5,58.5,29.85,South,186,0.0,5.0,68,0.00,,SKC,0.00,VWS V14.01,2013-09-02 08:50:00,
2013-09-02 01:55:00,69.5,58.5,29.85,South,186,0.0,4.0,68,0.00,,SKC,0.00,VWS V14.01,2013-09-02 08:55:00,
2013-09-02 02:00:00,69.5,58.5,29.85,South,186,0.0,5.0,68,0.00,,SKC,0.00,VWS V14.01,2013-09-02 09:00:00,
2013-09-02 02:05:00,69.4,58.4,29.85,South,186,0.0,1.0,68,0.00,,SKC,0.00,VWS V14.01,2013-09-02 09:05:00,
2013-09-02 02:10:00,69.4,58.4,29.85,South,184,0.0,5.0,68,0.00,,SKC,0.00,VWS V14.01,2013-09-02 09:10:00,
2013-09-02 02:15:00,69.4,58.4,29.85,South,178,2.0,6.0,68,0.00,,SKC,0.00,VWS V14.01,2013-09-02 09:15:00,
2013-09-02 02:20:00,69.4,58.4,29.85,South,178,0.0,2.0,68,0.00,,SKC,0.00,VWS V14.01,2013-09-02 09:20:00,
2013-09-02 02:25:00,69.4,58.4,29.86,WNW,288,0.0,2.0,68,0.00,,SKC,0.00,VWS V14.01,2013-09-02 09:25:00,
2013-09-02 02:30:00,69.4,58.4,29.86,SW,221,0.0,2.0,68,0.00,,SKC,0.00,VWS V14.01,2013-09-02 09:30:00,
2013-09-02 02:35:00,69.4,58.4,29.85,South,182,2.0,5.0,68,0.00,,SKC,0.00,VWS V14.01,2013-09-02 09:35:00,
2013-09-02 02:40:00,69.3,58.3,29.85,South,178,1.0,5.0,68,0.00,,SKC,0.00,VWS V14.01,2013-09-02 09:40:00,
2013-09-02 02:45:00,69.3,58.3,29.85,South,178,0.0,5.0,68,0.00,,SKC,0.00,VWS V14.01,2013-09-02 09:45:00,
2013-09-02 02:50:00,69.3,58.7,29.85,South,172,0.0,4.0,69,0.00,,SKC,0.00,VWS V14.01,2013-09-02 09:50:00,
2013-09-02 02:55:00,69.2,58.6,29.85,South,172,0.0,1.0,69,0.00,,SKC,0.00,VWS V14.01,2013-09-02 09:55:00,
2013-09-02 03:00:00,69.2,58.6,29.85,South,173,0.0,1.0,69,0.00,,SKC,0.00,VWS V14.01,2013-09-02 10:00:00,
2013-09-02 03:05:00,69.1,58.5,29.85,South,180,2.0,3.0,69,0.00,,SKC,0.00,VWS V14.01,2013-09-02 10:05:00,
2013-09-02 03:10:00,69.1,58.5,29.85,South,178,0.0,4.0,69,0.00,,SKC,0.00,VWS V14.01,2013-09-02 10:10:00,
2013-09-02 03:15:00,69.0,58.4,29.85,South,178,0.0,4.0,69,0.00,,SKC,0.00,VWS V14.01,2013-09-02 10:15:00,
2013-09-02 03:20:00,69.0,58.4,29.85,South,178,2.0,2.0,69,0.00,,SKC,0.00,VWS V14.01,2013-09-02 10:20:00,
2013-09-02 03:25:00,69.0,58.8,29.85,South,173,0.0,5.0,70,0.00,,SKC,0.00,VWS V14.01,2013-09-02 10:25:00,
2013-09-02 03:30:00,68.9,58.7,29.85,South,176,0.0,4.0,70,0.00,,SKC,0.00,VWS V14.01,2013-09-02 10:30:00,
2013-09-02 03:35:00,68.9,58.7,29.85,South,176,0.0,5.0,70,0.00,,SKC,0.00,VWS V14.01,2013-09-02 10:35:00,
2013-09-02 03:40:00,68.8,58.6,29.85,West,261,0.0,1.0,70,0.00,,SKC,0.00,VWS V14.01,2013-09-02 10:40:00,
2013-09-02 03:45:00,68.8,58.6,29.85,South,173,0.0,4.0,70,0.00,,SKC,0.00,VWS V14.01,2013-09-02 10:45:00,
2013-09-02 03:50:00,68.7,58.5,29.85,South,171,0.0,2.0,70,0.00,,SKC,0.00,VWS V14.01,2013-09-02 10:50:00,
2013-09-02 03:55:00,68.7,58.9,29.85,South,183,5.0,6.0,71,0.00,,SKC,0.00,VWS V14.01,2013-09-02 10:55:00,
2013-09-02 04:00:00,68.6,58.8,29.85,South,180,0.0,5.0,71,0.00,,SKC,0.00,VWS V14.01,2013-09-02 11:00:00,
2013-09-02 04:05:00,68.6,58.8,29.85,South,170,2.0,4.0,71,0.00,,SKC,0.00,VWS V14.01,2013-09-02 11:05:00,
2013-09-02 04:10:00,68.6,58.8,29.85,South,172,0.0,6.0,71,0.00,,SKC,0.00,VWS V14.01,2013-09-02 11:10:00,
2013-09-02 04:15:00,68.5,58.7,29.85,SSW,192,0.0,5.0,71,0.00,,SKC,0.00,VWS V14.01,2013-09-02 11:15:00,
2013-09-02 04:20:00,68.5,59.1,29.85,SSW,192,1.0,4.0,72,0.00,,SKC,0.00,VWS V14.01,2013-09-02 11:20:00,
2013-09-02 04:25:00,68.5,59.1,29.85,SSW,193,0.0,3.0,72,0.00,,SKC,0.00,VWS V14.01,2013-09-02 11:25:00,
2013-09-02 04:30:00,68.4,59.0,29.85,WSW,248,1.0,3.0,72,0.00,,SKC,0.00,VWS V14.01,2013-09-02 11:30:00,
2013-09-02 04:35:00,68.3,58.9,29.85,South,176,1.0,4.0,72,0.00,,SKC,0.00,VWS V14.01,2013-09-02 11:35:00,
2013-09-02 04:40:00,68.2,58.8,29.85,SW,222,0.0,5.0,72,0.00,,SKC,0.00,VWS V14.01,2013-09-02 11:40:00,
2013-09-02 04:45:00,68.1,59.1,29.85,South,176,0.0,3.0,73,0.00,,SKC,0.00,VWS V14.01,2013-09-02 11:45:00,
2013-09-02 04:50:00,68.1,59.1,29.86,North,11,0.0,2.0,73,0.00,,SKC,0.00,VWS V14.01,2013-09-02 11:50:00,
2013-09-02 04:55:00,68.0,59.4,29.85,SSW,211,0.0,2.0,74,0.00,,SKC,0.00,VWS V14.01,2013-09-02 11:55:00,
2013-09-02 05:00:00,67.9,59.3,29.85,WSW,249,0.0,1.0,74,0.00,,SKC,0.00,VWS V14.01,2013-09-02 12:00:00,
2013-09-02 05:05:00,67.9,59.3,29.85,SSW,195,0.0,2.0,74,0.00,,SKC,0.00,VWS V14.01,2013-09-02 12:05:00,
2013-09-02 05:10:00,67.7,59.5,29.86,SSW,194,1.0,4.0,75,0.00,,SKC,0.00,VWS V14.01,2013-09-02 12:10:00,
2013-09-02 05:15:00,67.7,59.5,29.86,SSW,194,0.0,1.0,75,0.00,,SKC,0.00,VWS V14.01,2013-09-02 12:15:00,
2013-09-02 05:20:00,67.6,59.4,29.86,WNW,291,2.0,3.0,75,0.00,,SKC,0.00,VWS V14.01,2013-09-02 12:20:00,
2013-09-02 05:25:00,67.5,59.3,29.86,West,279,1.0,2.0,75,0.00,,SKC,0.00,VWS V14.01,2013-09-02 12:25:00,
2013-09-02 05:30:00,67.4,59.6,29.86,West,269,1.0,3.0,76,0.00,,SKC,0.00,VWS V14.01,2013-09-02 12:30:00,
2013-09-02 05:35:00,67.3,59.5,29.86,West,275,0.0,5.0,76,0.00,,SKC,0.00,VWS V14.01,2013-09-02 12:35:00,
2013-09-02 05:40:00,67.3,59.5,29.86,West,275,0.0,0.0,76,0.00,,SKC,0.00,VWS V14.01,2013-09-02 12:40:00,
2013-09-02 05:45:00,67.2,59.8,29.86,South,184,0.0,5.0,77,0.00,,SKC,0.00,VWS V14.01,2013-09-02 12:45:00,
2013-09-02 05:50:00,67.2,59.8,29.87,South,179,3.0,4.0,77,0.00,,SKC,0.00,VWS V14.01,2013-09-02 12:50:00,
2013-09-02 05:55:00,67.2,59.8,29.86,SSW,196,0.0,3.0,77,0.00,,SKC,0.00,VWS V14.01,2013-09-02 12:55:00,
2013-09-02 06:00:00,67.1,59.7,29.87,SW,227,0.0,4.0,77,0.00,,SKC,0.00,VWS V14.01,2013-09-02 13:00:00,
2013-09-02 06:05:00,67.0,59.6,29.87,SW,227,0.0,1.0,77,0.00,,SKC,0.00,VWS V14.01,2013-09-02 13:05:00,
2013-09-02 06:10:00,66.9,59.8,29.87,WSW,246,0.0,4.0,78,0.00,,SKC,0.00,VWS V14.01,2013-09-02 13:10:00,
2013-09-02 06:15:00,66.8,59.7,29.87,SSW,205,0.0,2.0,78,0.00,,SKC,0.00,VWS V14.01,2013-09-02 13:15:00,
2013-09-02 06:20:00,66.7,60.0,29.87,SSW,206,2.0,2.0,79,0.00,,SKC,0.00,VWS V14.01,2013-09-02 13:20:00,
2013-09-02 06:25:00,66.6,59.9,29.87,WSW,244,1.0,4.0,79,0.00,,SKC,0.00,VWS V14.01,2013-09-02 13:25:00,
2013-09-02 06:31:00,66.4,60.0,29.87,WSW,253,0.0,6.0,80,0.00,,SKC,0.00,VWS V14.01,2013-09-02 13:31:00,
2013-09-02 06:40:00,66.1,60.1,29.88,SSW,211,0.0,2.0,81,0.00,,SKC,0.00,VWS V14.01,2013-09-02 13:40:00,
2013-09-02 06:45:00,65.9,59.9,29.88,West,260,2.0,4.0,81,0.00,,SKC,0.00,VWS V14.01,2013-09-02 13:45:00,
2013-09-02 06:50:00,65.7,60.1,29.88,SW,234,1.0,5.0,82,0.00,,SKC,0.00,VWS V14.01,2013-09-02 13:50:00,
2013-09-02 06:55:00,65.5,59.9,29.88,West,263,1.0,4.0,82,0.00,,SKC,0.00,VWS V14.01,2013-09-02 13:55:00,
2013-09-02 07:00:00,65.4,60.1,29.89,WNW,291,0.0,4.0,83,0.00,,SKC,0.00,VWS V14.01,2013-09-02 14:00:00,
2013-09-02 07:05:00,65.2,59.9,29.89,WSW,244,0.0,6.0,83,0.00,,SKC,0.00,VWS V14.01,2013-09-02 14:05:00,
2013-09-02 07:10:00,65.2,60.2,29.89,WSW,239,0.0,2.0,84,0.00,,SKC,0.00,VWS V14.01,2013-09-02 14:10:00,
2013-09-02 07:15:00,65.2,60.2,29.89,WSW,246,0.0,3.0,84,0.00,,SKC,0.00,VWS V14.01,2013-09-02 14:15:00,
2013-09-02 07:20:00,65.1,60.2,29.89,SSW,210,0.0,4.0,84,0.00,,SKC,0.00,VWS V14.01,2013-09-02 14:20:00,
2013-09-02 07:25:00,65.1,60.5,29.89,South,190,0.0,4.0,85,0.00,,SKC,0.00,VWS V14.01,2013-09-02 14:25:00,
2013-09-02 07:30:00,65.2,60.6,29.89,South,190,0.0,2.0,85,0.00,,SKC,0.00,VWS V14.01,2013-09-02 14:30:00,
2013-09-02 07:35:00,65.2,60.2,29.89,South,190,0.0,2.0,84,0.00,,SKC,0.00,VWS V14.01,2013-09-02 14:35:00,
2013-09-02 07:40:00,65.4,60.8,29.90,WSW,240,0.0,4.0,85,0.00,,SKC,0.00,VWS V14.01,2013-09-02 14:40:00,
2013-09-02 07:45:00,65.5,60.5,29.90,WSW,240,0.0,2.0,84,0.00,,SKC,0.00,VWS V14.01,2013-09-02 14:45:00,
2013-09-02 07:51:00,65.7,60.7,29.90,WSW,241,0.0,2.0,84,0.00,,SKC,0.00,VWS V14.01,2013-09-02 14:51:00,
2013-09-02 08:00:00,66.0,60.7,29.90,West,265,0.0,5.0,83,0.00,,SKC,0.00,VWS V14.01,2013-09-02 15:00:00,
2013-09-02 08:05:00,66.1,60.8,29.90,West,273,1.0,5.0,83,0.00,,SKC,0.00,VWS V14.01,2013-09-02 15:05:00,
2013-09-02 08:10:00,66.3,61.0,29.90,West,273,0.0,4.0,83,0.00,,SKC,0.00,VWS V14.01,2013-09-02 15:10:00,
2013-09-02 08:15:00,66.5,61.2,29.91,SSW,213,0.0,3.0,83,0.00,,SKC,0.00,VWS V14.01,2013-09-02 15:15:00,
2013-09-02 08:20:00,66.6,61.3,29.90,SSW,213,0.0,2.0,83,0.00,,SKC,0.00,VWS V14.01,2013-09-02 15:20:00,
2013-09-02 08:25:00,66.7,61.0,29.90,WNW,284,0.0,2.0,82,0.00,,SKC,0.00,VWS V14.01,2013-09-02 15:25:00,
2013-09-02 08:30:00,67.0,61.3,29.90,WNW,302,0.0,4.0,82,0.00,,SKC,0.00,VWS V14.01,2013-09-02 15:30:00,
2013-09-02 08:35:00,67.1,61.4,29.90,WNW,301,0.0,3.0,82,0.00,,SKC,0.00,VWS V14.01,2013-09-02 15:35:00,
2013-09-02 08:40:00,67.4,61.4,29.91,WNW,301,0.0,1.0,81,0.00,,SKC,0.00,VWS V14.01,2013-09-02 15:40:00,
2013-09-02 08:45:00,67.6,61.6,29.91,WNW,284,1.0,5.0,81,0.00,,SKC,0.00,VWS V14.01,2013-09-02 15:45:00,
2013-09-02 08:50:00,67.9,61.5,29.90,West,273,0.0,3.0,80,0.00,,SKC,0.00,VWS V14.01,2013-09-02 15:50:00,
2013-09-02 08:55:00,68.0,61.6,29.90,WNW,284,0.0,4.0,80,0.00,,SKC,0.00,VWS V14.01,2013-09-02 15:55:00,
2013-09-02 09:01:00,68.2,61.8,29.90,WNW,283,0.0,2.0,80,0.00,,SKC,0.00,VWS V14.01,2013-09-02 16:01:00,
2013-09-02 09:10:00,69.0,61.9,29.90,WNW,283,1.0,5.0,78,0.00,,SKC,0.00,VWS V14.01,2013-09-02 16:10:00,
2013-09-02 09:15:00,69.4,61.9,29.91,NW,319,1.0,8.0,77,0.00,,SKC,0.00,VWS V14.01,2013-09-02 16:15:00,
2013-09-02 09:20:00,69.4,61.5,29.90,WSW,244,2.0,5.0,76,0.00,,SKC,0.00,VWS V14.01,2013-09-02 16:20:00,
2013-09-02 09:25:00,69.5,61.6,29.90,NW,315,0.0,5.0,76,0.00,,SKC,0.00,VWS V14.01,2013-09-02 16:25:00,
2013-09-02 09:30:00,69.7,61.8,29.90,WSW,256,1.0,6.0,76,0.00,,SKC,0.00,VWS V14.01,2013-09-02 16:30:00,
2013-09-02 09:35:00,69.9,62.0,29.91,WNW,302,0.0,4.0,76,0.00,,SKC,0.00,VWS V14.01,2013-09-02 16:35:00,
2013-09-02 09:41:00,70.1,62.2,29.91,WNW,283,5.0,7.0,76,0.00,,SKC,0.00,VWS V14.01,2013-09-02 16:41:00,
2013-09-02 09:50:00,71.1,62.4,29.91,West,267,3.0,7.0,74,0.00,,SKC,0.00,VWS V14.01,2013-09-02 16:50:00,
2013-09-02 09:55:00,71.5,62.4,29.90,South,187,0.0,3.0,73,0.00,,SKC,0.00,VWS V14.01,2013-09-02 16:55:00,
2013-09-02 10:00:00,72.0,62.5,29.90,WSW,237,0.0,3.0,72,0.00,,SKC,0.00,VWS V14.01,2013-09-02 17:00:00,
2013-09-02 10:05:00,72.4,62.5,29.90,South,173,0.0,5.0,71,0.00,,SKC,0.00,VWS V14.01,2013-09-02 17:05:00,
2013-09-02 10:10:00,72.7,62.4,29.90,South,183,3.0,5.0,70,0.00,,SKC,0.00,VWS V14.01,2013-09-02 17:10:00,
2013-09-02 10:15:00,73.0,62.2,29.90,South,176,0.0,5.0,69,0.00,,SKC,0.00,VWS V14.01,2013-09-02 17:15:00,
2013-09-02 10:20:00,73.3,62.5,29.90,South,176,0.0,4.0,69,0.00,,SKC,0.00,VWS V14.01,2013-09-02 17:20:00,
2013-09-02 10:26:00,73.5,62.7,29.90,South,185,4.0,4.0,69,0.00,,SKC,0.00,VWS V14.01,2013-09-02 17:26:00,
2013-09-02 10:31:00,73.4,62.6,29.90,South,184,2.0,5.0,69,0.00,,SKC,0.00,VWS V14.01,2013-09-02 17:31:00,
2013-09-02 10:40:00,75.0,62.9,29.90,West,277,0.0,7.0,66,0.00,,SKC,0.00,VWS V14.01,2013-09-02 17:40:00,
2013-09-02 10:46:00,75.8,63.2,29.90,SSE,165,0.0,2.0,65,0.00,,SKC,0.00,VWS V14.01,2013-09-02 17:46:00,
2013-09-02 10:51:00,76.6,63.5,29.90,West,265,0.0,6.0,64,0.00,,SKC,0.00,VWS V14.01,2013-09-02 17:51:00,
2013-09-02 11:00:00,78.7,63.7,29.90,SW,223,0.0,7.0,60,0.00,,SKC,0.00,VWS V14.01,2013-09-02 18:00:00,
2013-09-02 11:05:00,79.0,63.5,29.90,South,179,0.0,4.0,59,0.00,,SKC,0.00,VWS V14.01,2013-09-02 18:05:00,
2013-09-02 11:11:00,79.1,63.6,29.90,WSW,248,3.0,7.0,59,0.00,,SKC,0.00,VWS V14.01,2013-09-02 18:11:00,
2013-09-02 11:20:00,78.2,63.2,29.90,West,277,0.0,4.0,60,0.00,,SKC,0.00,VWS V14.01,2013-09-02 18:20:00,
2013-09-02 11:25:00,78.4,63.4,29.90,WSW,241,0.0,5.0,60,0.00,,SKC,0.00,VWS V14.01,2013-09-02 18:25:00,
2013-09-02 11:30:00,78.7,62.7,29.90,WNW,282,1.0,5.0,58,0.00,,SKC,0.00,VWS V14.01,2013-09-02 18:30:00,
2013-09-02 11:35:00,78.7,63.2,29.90,WSW,254,0.0,2.0,59,0.00,,SKC,0.00,VWS V14.01,2013-09-02 18:35:00,
2013-09-02 11:41:00,78.4,62.4,29.89,SW,233,1.0,5.0,58,0.00,,SKC,0.00,VWS V14.01,2013-09-02 18:41:00,
2013-09-02 11:46:00,78.3,62.8,29.90,SW,233,0.0,2.0,59,0.00,,SKC,0.00,VWS V14.01,2013-09-02 18:46:00,
2013-09-02 11:51:00,78.5,63.0,29.89,South,186,4.0,5.0,59,0.00,,SKC,0.00,VWS V14.01,2013-09-02 18:51:00,
2013-09-02 12:00:00,80.1,63.5,29.89,West,265,0.0,5.0,57,0.00,,SKC,0.00,VWS V14.01,2013-09-02 19:00:00,
2013-09-02 12:05:00,80.8,63.7,29.89,West,265,0.0,1.0,56,0.00,,SKC,0.00,VWS V14.01,2013-09-02 19:05:00,
2013-09-02 12:10:00,81.8,64.1,29.89,West,279,2.0,7.0,55,0.00,,SKC,0.00,VWS V14.01,2013-09-02 19:10:00,
2013-09-02 12:15:00,82.3,64.0,29.89,South,173,1.0,6.0,54,0.00,,SKC,0.00,VWS V14.01,2013-09-02 19:15:00,
2013-09-02 12:20:00,81.1,63.4,29.89,South,178,0.0,7.0,55,0.00,,SKC,0.00,VWS V14.01,2013-09-02 19:20:00,
2013-09-02 12:25:00,80.5,62.9,29.89,SW,228,0.0,6.0,55,0.00,,SKC,0.00,VWS V14.01,2013-09-02 19:25:00,
2013-09-02 12:31:00,80.4,63.3,29.89,West,267,0.0,8.0,56,0.00,,SKC,0.00,VWS V14.01,2013-09-02 19:31:00,
2013-09-02 12:36:00,80.6,63.0,29.89,NW,323,4.0,5.0,55,0.00,,SKC,0.00,VWS V14.01,2013-09-02 19:36:00,
2013-09-02 12:45:00,80.1,63.0,29.89,NNW,335,0.0,4.0,56,0.00,,SKC,0.00,VWS V14.01,2013-09-02 19:45:00,
2013-09-02 12:50:00,79.8,62.7,29.88,SSE,168,0.0,4.0,56,0.00,,SKC,0.00,VWS V14.01,2013-09-02 19:50:00,
2013-09-02 12:55:00,80.0,62.9,29.88,SSW,213,0.0,4.0,56,0.00,,SKC,0.00,VWS V14.01,2013-09-02 19:55:00,
2013-09-02 13:01:00,80.5,62.9,29.88,WNW,299,1.0,4.0,55,0.00,,SKC,0.00,VWS V14.01,2013-09-02 20:01:00,
2013-09-02 13:06:00,80.6,63.0,29.88,West,260,6.0,6.0,55,0.00,,SKC,0.00,VWS V14.01,2013-09-02 20:06:00,
2013-09-02 13:11:00,81.0,62.8,29.88,NW,309,2.0,6.0,54,0.00,,SKC,0.00,VWS V14.01,2013-09-02 20:11:00,
2013-09-02 13:16:00,81.2,63.0,29.87,South,182,1.0,5.0,54,0.00,,SKC,0.00,VWS V14.01,2013-09-02 20:16:00,
2013-09-02 13:25:00,81.6,63.4,29.87,NW,311,3.0,6.0,54,0.00,,SKC,0.00,VWS V14.01,2013-09-02 20:25:00,
2013-09-02 13:30:00,82.4,63.6,29.87,South,191,1.0,6.0,53,0.00,,SKC,0.00,VWS V14.01,2013-09-02 20:30:00,
2013-09-02 13:35:00,83.2,64.3,29.87,West,276,0.0,7.0,53,0.00,,SKC,0.00,VWS V14.01,2013-09-02 20:35:00,
2013-09-02 13:40:00,84.4,63.2,29.87,South,171,0.0,7.0,49,0.00,,SKC,0.00,VWS V14.01,2013-09-02 20:40:00,
2013-09-02 13:45:00,84.5,62.7,29.87,South,175,2.0,8.0,48,0.00,,SKC,0.00,VWS V14.01,2013-09-02 20:45:00,
2013-09-02 13:50:00,83.7,62.5,29.87,SSW,207,0.0,7.0,49,0.00,,SKC,0.00,VWS V14.01,2013-09-02 20:50:00,
2013-09-02 13:56:00,84.0,62.2,29.86,SSW,210,2.0,2.0,48,0.00,,SKC,0.00,VWS V14.01,2013-09-02 20:56:00,
2013-09-02 14:05:00,84.9,61.2,29.86,South,173,0.0,6.0,45,0.00,,SKC,0.00,VWS V14.01,2013-09-02 21:05:00,
2013-09-02 14:10:00,85.8,62.0,29.86,SSE,151,4.0,6.0,45,0.00,,SKC,0.00,VWS V14.01,2013-09-02 21:10:00,
2013-09-02 14:16:00,86.3,61.8,29.86,SSE,163,2.0,6.0,44,0.00,,SKC,0.00,VWS V14.01,2013-09-02 21:16:00,
2013-09-02 14:21:00,86.5,62.0,29.86,SSW,192,0.0,8.0,44,0.00,,SKC,0.00,VWS V14.01,2013-09-02 21:21:00,
2013-09-02 14:30:00,86.8,62.3,29.85,West,269,0.0,9.0,44,0.00,,SKC,0.00,VWS V14.01,2013-09-02 21:30:00,
2013-09-02 14:35:00,87.0,62.5,29.85,WNW,290,3.0,9.0,44,0.00,,SKC,0.00,VWS V14.01,2013-09-02 21:35:00,
2013-09-02 14:41:00,87.1,62.6,29.85,SSW,209,6.0,7.0,44,0.00,,SKC,0.00,VWS V14.01,2013-09-02 21:41:00,
2013-09-02 14:46:00,86.6,62.8,29.85,WNW,300,0.0,6.0,45,0.00,,SKC,0.00,VWS V14.01,2013-09-02 21:46:00,
2013-09-02 14:55:00,86.1,62.9,29.85,WSW,257,0.0,13.0,46,0.00,,SKC,0.00,VWS V14.01,2013-09-02 21:55:00,
2013-09-02 15:00:00,85.9,62.1,29.85,NW,311,4.0,10.0,45,0.00,,SKC,0.00,VWS V14.01,2013-09-02 22:00:00,
2013-09-02 15:06:00,86.0,62.2,29.84,West,266,4.0,9.0,45,0.00,,SKC,0.00,VWS V14.01,2013-09-02 22:06:00,
2013-09-02 15:16:00,85.6,63.7,29.84,NW,321,1.0,6.0,48,0.00,,SKC,0.00,VWS V14.01,2013-09-02 22:16:00,
2013-09-02 15:26:00,84.7,62.3,29.84,WNW,284,0.0,8.0,47,0.00,,SKC,0.00,VWS V14.01,2013-09-02 22:26:00,
2013-09-02 15:31:00,84.3,62.5,29.84,West,263,0.0,5.0,48,0.00,,SKC,0.00,VWS V14.01,2013-09-02 22:31:00,
2013-09-02 15:36:00,84.1,62.9,29.84,South,190,0.0,5.0,49,0.00,,SKC,0.00,VWS V14.01,2013-09-02 22:36:00,
2013-09-02 15:41:00,83.6,62.4,29.84,West,261,1.0,9.0,49,0.00,,SKC,0.00,VWS V14.01,2013-09-02 22:41:00,
2013-09-02 15:46:00,83.1,62.5,29.84,WSW,242,1.0,6.0,50,0.00,,SKC,0.00,VWS V14.01,2013-09-02 22:46:00,
2013-09-02 15:51:00,82.8,61.7,29.84,WSW,250,4.0,6.0,49,0.00,,SKC,0.00,VWS V14.01,2013-09-02 22:51:00,
2013-09-02 16:01:00,82.5,62.6,29.84,WSW,256,5.0,6.0,51,0.00,,SKC,0.00,VWS V14.01,2013-09-02 23:01:00,
2013-09-02 16:10:00,81.7,62.4,29.84,West,263,1.0,5.0,52,0.00,,SKC,0.00,VWS V14.01,2013-09-02 23:10:00,
2013-09-02 16:15:00,81.4,62.1,29.83,WSW,257,0.0,8.0,52,0.00,,SKC,0.00,VWS V14.01,2013-09-02 23:15:00,
2013-09-02 16:20:00,81.5,62.7,29.83,WNW,286,0.0,7.0,53,0.00,,SKC,0.00,VWS V14.01,2013-09-02 23:20:00,
2013-09-02 16:25:00,81.0,62.3,29.83,SW,220,3.0,7.0,53,0.00,,SKC,0.00,VWS V14.01,2013-09-02 23:25:00,
2013-09-02 16:31:00,80.8,62.1,29.84,West,277,0.0,5.0,53,0.00,,SKC,0.00,VWS V14.01,2013-09-02 23:31:00,
2013-09-02 16:36:00,81.0,62.8,29.83,South,174,1.0,5.0,54,0.00,,SKC,0.00,VWS V14.01,2013-09-02 23:36:00,
2013-09-02 16:41:00,80.9,63.2,29.84,WSW,238,0.0,6.0,55,0.00,,SKC,0.00,VWS V14.01,2013-09-02 23:41:00,
2013-09-02 16:46:00,80.8,62.6,29.83,South,184,4.0,10.0,54,0.00,,SKC,0.00,VWS V14.01,2013-09-02 23:46:00,
2013-09-02 16:56:00,80.3,62.2,29.83,SSE,161,0.0,6.0,54,0.00,,SKC,0.00,VWS V14.01,2013-09-02 23:56:00,
2013-09-02 17:01:00,80.2,63.1,29.83,WSW,238,1.0,6.0,56,0.00,,SKC,0.00,VWS V14.01,2013-09-03 00:01:00,
2013-09-02 17:06:00,80.1,63.5,29.83,SSE,165,3.0,9.0,57,0.00,,SKC,0.00,VWS V14.01,2013-09-03 00:06:00,
2013-09-02 17:11:00,79.7,63.1,29.83,South,173,0.0,5.0,57,0.00,,SKC,0.00,VWS V14.01,2013-09-03 00:11:00,
2013-09-02 17:21:00,80.0,62.9,29.83,WNW,282,5.0,9.0,56,0.00,,SKC,0.00,VWS V14.01,2013-09-03 00:21:00,
2013-09-02 17:31:00,80.5,63.4,29.83,WNW,291,0.0,6.0,56,0.00,,SKC,0.00,VWS V14.01,2013-09-03 00:31:00,
2013-09-02 17:41:00,80.4,63.3,29.83,SW,221,0.0,6.0,56,0.00,,SKC,0.00,VWS V14.01,2013-09-03 00:41:00,
2013-09-02 17:46:00,80.2,63.1,29.83,SW,236,0.0,6.0,56,0.00,,SKC,0.00,VWS V14.01,2013-09-03 00:46:00,
2013-09-02 17:51:00,79.8,62.7,29.83,SSW,202,0.0,5.0,56,0.00,,SKC,0.00,VWS V14.01,2013-09-03 00:51:00,
2013-09-02 17:56:00,79.3,62.8,29.83,WSW,238,0.0,6.0,57,0.00,,SKC,0.00,VWS V14.01,2013-09-03 00:56:00,
2013-09-02 18:05:00,78.6,62.6,29.84,SSE,153,0.0,6.0,58,0.00,,SKC,0.00,VWS V14.01,2013-09-03 01:05:00,
2013-09-02 18:11:00,77.8,62.3,29.84,South,172,0.0,7.0,59,0.00,,SKC,0.00,VWS V14.01,2013-09-03 01:11:00,
2013-09-02 18:16:00,77.3,61.9,29.84,South,173,0.0,8.0,59,0.00,,SKC,0.00,VWS V14.01,2013-09-03 01:16:00,
2013-09-02 18:21:00,76.8,61.9,29.84,South,175,0.0,7.0,60,0.00,,SKC,0.00,VWS V14.01,2013-09-03 01:21:00,
2013-09-02 18:26:00,76.6,62.2,29.84,South,173,0.0,6.0,61,0.00,,SKC,0.00,VWS V14.01,2013-09-03 01:26:00,
2013-09-02 18:31:00,76.3,61.9,29.84,South,184,0.0,6.0,61,0.00,,SKC,0.00,VWS V14.01,2013-09-03 01:31:00,
2013-09-02 18:36:00,76.0,62.0,29.84,WNW,301,0.0,2.0,62,0.00,,SKC,0.00,VWS V14.01,2013-09-03 01:36:00,
2013-09-02 18:46:00,75.3,63.2,29.83,SSW,192,0.0,4.0,66,0.00,,SKC,0.00,VWS V14.01,2013-09-03 01:46:00,
2013-09-02 18:55:00,74.7,62.2,29.83,South,186,3.0,3.0,65,0.00,,SKC,0.00,VWS V14.01,2013-09-03 01:55:00,
2013-09-02 19:00:00,74.5,62.0,29.83,South,186,0.0,4.0,65,0.00,,SKC,0.00,VWS V14.01,2013-09-03 02:00:00,
2013-09-02 19:06:00,74.3,61.8,29.84,South,173,0.0,5.0,65,0.00,,SKC,0.00,VWS V14.01,2013-09-03 02:06:00,
2013-09-02 19:16:00,74.2,62.1,29.83,South,176,0.0,4.0,66,0.00,,SKC,0.00,VWS V14.01,2013-09-03 02:16:00,
2013-09-02 19:21:00,74.2,62.1,29.83,WSW,257,0.0,2.0,66,0.00,,SKC,0.00,VWS V14.01,2013-09-03 02:21:00,
2013-09-02 19:30:00,73.9,61.8,29.84,WNW,284,0.0,5.0,66,0.00,,SKC,0.00,VWS V14.01,2013-09-03 02:30:00,
2013-09-02 19:36:00,73.8,61.7,29.84,South,176,1.0,4.0,66,0.00,,SKC,0.00,VWS V14.01,2013-09-03 02:36:00,
2013-09-02 19:41:00,73.7,62.1,29.84,SW,217,0.0,4.0,67,0.00,,SKC,0.00,VWS V14.01,2013-09-03 02:41:00,
2013-09-02 19:50:00,73.4,61.8,29.84,South,175,0.0,4.0,67,0.00,,SKC,0.00,VWS V14.01,2013-09-03 02:50:00,
2013-09-02 19:56:00,73.1,61.9,29.85,South,178,0.0,2.0,68,0.00,,SKC,0.00,VWS V14.01,2013-09-03 02:56:00,
2013-09-02 20:06:00,72.5,61.8,29.85,South,180,1.0,6.0,69,0.00,,SKC,0.00,VWS V14.01,2013-09-03 03:06:00,
2013-09-02 20:11:00,72.2,61.9,29.85,South,182,0.0,4.0,70,0.00,,SKC,0.00,VWS V14.01,2013-09-03 03:11:00,
2013-09-02 20:16:00,72.0,61.7,29.85,West,274,2.0,3.0,70,0.00,,SKC,0.00,VWS V14.01,2013-09-03 03:16:00,
2013-09-02 20:21:00,71.9,62.0,29.86,SSE,155,0.0,4.0,71,0.00,,SKC,0.00,VWS V14.01,2013-09-03 03:21:00,
2013-09-02 20:30:00,71.7,62.2,29.86,SW,225,0.0,2.0,72,0.00,,SKC,0.00,VWS V14.01,2013-09-03 03:30:00,
2013-09-02 20:36:00,71.6,62.1,29.86,SW,225,0.0,0.0,72,0.00,,SKC,0.00,VWS V14.01,2013-09-03 03:36:00,
2013-09-02 20:41:00,71.4,62.3,29.87,SSW,209,0.0,2.0,73,0.00,,SKC,0.00,VWS V14.01,2013-09-03 03:41:00,
2013-09-02 20:51:00,71.1,62.0,29.87,SSW,209,0.0,1.0,73,0.00,,SKC,0.00,VWS V14.01,2013-09-03 03:51:00,
2013-09-02 20:56:00,70.9,61.8,29.87,SSW,209,0.0,0.0,73,0.00,,SKC,0.00,VWS V14.01,2013-09-03 03:56:00,
2013-09-02 21:01:00,70.7,62.0,29.87,SSW,209,0.0,1.0,74,0.00,,SKC,0.00,VWS V14.01,2013-09-03 04:01:00,
2013-09-02 21:06:00,70.6,61.9,29.87,SSW,209,1.0,1.0,74,0.00,,SKC,0.00,VWS V14.01,2013-09-03 04:06:00,
2013-09-02 21:11:00,70.4,61.7,29.88,SSW,209,0.0,1.0,74,0.00,,SKC,0.00,VWS V14.01,2013-09-03 04:11:00,
2013-09-02 21:16:00,70.3,61.6,29.88,West,272,0.0,4.0,74,0.00,,SKC,0.00,VWS V14.01,2013-09-03 04:16:00,
2013-09-02 21:21:00,70.1,61.8,29.88,West,275,0.0,2.0,75,0.00,,SKC,0.00,VWS V14.01,2013-09-03 04:21:00,
2013-09-02 21:26:00,70.0,61.7,29.88,South,190,0.0,4.0,75,0.00,,SKC,0.00,VWS V14.01,2013-09-03 04:26:00,
2013-09-02 21:31:00,69.8,61.5,29.88,SSW,213,0.0,2.0,75,0.00,,SKC,0.00,VWS V14.01,2013-09-03 04:31:00,
2013-09-02 21:36:00,69.6,61.7,29.88,SSW,213,0.0,2.0,76,0.00,,SKC,0.00,VWS V14.01,2013-09-03 04:36:00,
2013-09-02 21:41:00,69.5,61.6,29.88,WSW,249,0.0,3.0,76,0.00,,SKC,0.00,VWS V14.01,2013-09-03 04:41:00,
2013-09-02 21:46:00,69.3,61.4,29.88,West,263,0.0,5.0,76,0.00,,SKC,0.00,VWS V14.01,2013-09-03 04:46:00,
2013-09-02 21:56:00,69.1,61.6,29.88,South,188,0.0,5.0,77,0.00,,SKC,0.00,VWS V14.01,2013-09-03 04:56:00,
2013-09-02 22:01:00,69.0,61.5,29.88,South,189,0.0,4.0,77,0.00,,SKC,0.00,VWS V14.01,2013-09-03 05:01:00,
2013-09-02 22:06:00,68.8,61.3,29.88,SSW,211,0.0,2.0,77,0.00,,SKC,0.00,VWS V14.01,2013-09-03 05:06:00,
2013-09-02 22:10:00,68.7,61.2,29.88,West,273,0.0,5.0,77,0.00,,SKC,0.00,VWS V14.01,2013-09-03 05:10:00,
2013-09-02 22:15:00,68.5,61.4,29.88,South,177,0.0,3.0,78,0.00,,SKC,0.00,VWS V14.01,2013-09-03 05:15:00,
2013-09-02 22:21:00,68.4,61.3,29.88,South,177,0.0,2.0,78,0.00,,SKC,0.00,VWS V14.01,2013-09-03 05:21:00,
2013-09-02 22:26:00,68.2,61.1,29.88,South,177,0.0,4.0,78,0.00,,SKC,0.00,VWS V14.01,2013-09-03 05:26:00,
2013-09-02 22:31:00,68.0,60.9,29.88,South,176,0.0,2.0,78,0.00,,SKC,0.00,VWS V14.01,2013-09-03 05:31:00,
2013-09-02 22:41:00,67.7,60.6,29.88,South,177,0.0,2.0,78,0.00,,SKC,0.00,VWS V14.01,2013-09-03 05:41:00,
2013-09-02 22:46:00,67.6,60.5,29.88,South,176,0.0,0.0,78,0.00,,SKC,0.00,VWS V14.01,2013-09-03 05:46:00,
2013-09-02 22:56:00,67.3,60.2,29.88,South,177,0.0,1.0,78,0.00,,SKC,0.00,VWS V14.01,2013-09-03 05:56:00,
2013-09-02 23:01:00,67.2,60.1,29.88,South,176,0.0,1.0,78,0.00,,SKC,0.00,VWS V14.01,2013-09-03 06:01:00,
2013-09-02 23:06:00,67.2,60.1,29.88,South,177,0.0,2.0,78,0.00,,SKC,0.00,VWS V14.01,2013-09-03 06:06:00,
2013-09-02 23:11:00,67.1,60.0,29.88,South,177,0.0,2.0,78,0.00,,SKC,0.00,VWS V14.01,2013-09-03 06:11:00,
2013-09-02 23:21:00,67.2,59.8,29.88,South,176,0.0,4.0,77,0.00,,SKC,0.00,VWS V14.01,2013-09-03 06:21:00,
2013-09-02 23:26:00,67.4,59.2,29.88,South,171,1.0,4.0,75,0.00,,SKC,0.00,VWS V14.01,2013-09-03 06:26:00,
2013-09-02 23:36:00,67.6,58.3,29.88,South,180,2.0,5.0,72,0.00,,SKC,0.00,VWS V14.01,2013-09-03 06:36:00,
2013-09-02 23:41:00,67.7,58.4,29.88,South,181,0.0,6.0,72,0.00,,SKC,0.00,VWS V14.01,2013-09-03 06:41:00,
2013-09-02 23:50:00,67.7,58.0,29.88,South,181,0.0,5.0,71,0.00,,SKC,0.00,VWS V14.01,2013-09-03 06:50:00,
2013-09-02 23:56:00,67.7,57.6,29.88,WSW,246,1.0,2.0,70,0.00,,SKC,0.00,VWS V14.01,2013-09-03 06:56:00,